| time (UTC) | temp F | wind direction | speed knots | gust knots | rain 1hr in | rain 24hr in | rain mn in | humidity % | barometer mb |
| 20260510203044 | 83 | 0 | 0.0 | 5.2 | 0.00 | 0.00 | 0.00 | 27 | 1015.1 |
| 20260510201544 | 82 | 198 | 2.6 | 7.0 | 0.00 | 0.00 | 0.00 | 26 | 1015.4 |
| 20260510200047 | 83 | 0 | 0.0 | 8.7 | 0.00 | 0.00 | 0.00 | 28 | 1015.5 |
| 20260510194558 | 84 | 241 | 0.0 | 3.5 | 0.00 | 0.00 | 0.00 | 26 | 1015.6 |
| 20260510193050 | 82 | 187 | 0.0 | 2.6 | 0.00 | 0.00 | 0.00 | 27 | 1015.5 |
| 20260510191547 | 84 | 294 | 0.0 | 2.6 | 0.00 | 0.00 | 0.00 | 27 | 1015.7 |
| 20260510190052 | 83 | 232 | 0.9 | 4.3 | 0.00 | 0.00 | 0.00 | 25 | 1015.8 |
| 20260510184546 | 82 | 0 | 0.9 | 4.3 | 0.00 | 0.00 | 0.00 | 27 | 1015.9 |
| 20260510183057 | 81 | 228 | 0.9 | 4.3 | 0.00 | 0.00 | 0.00 | 28 | 1016.0 |
| 20260510181618 | 81 | 332 | 0.9 | 4.3 | 0.00 | 0.00 | 0.00 | 28 | 1016.1 |
| 20260510180057 | 82 | 248 | 0.9 | 5.2 | 0.00 | 0.00 | 0.00 | 29 | 1016.2 |
| 20260510174559 | 81 | 217 | 0.0 | 1.7 | 0.00 | 0.00 | 0.00 | 30 | 1016.2 |
| 20260510173051 | 80 | 129 | 1.7 | 3.5 | 0.00 | 0.00 | 0.00 | 30 | 1016.3 |
| 20260510171547 | 81 | 178 | 0.9 | 3.5 | 0.00 | 0.00 | 0.00 | 30 | 1016.4 |
| 20260510170048 | 82 | 0 | 0.0 | 3.5 | 0.00 | 0.00 | 0.00 | 32 | 1016.4 |
| 20260510164550 | 78 | 139 | 0.9 | 3.5 | 0.00 | 0.00 | 0.00 | 28 | 1016.6 |
| 20260510163048 | 81 | 0 | 0.0 | 1.7 | 0.00 | 0.00 | 0.00 | 31 | 1016.7 |
| 20260510161550 | 80 | 122 | 0.0 | 1.7 | 0.00 | 0.00 | 0.00 | 30 | 1016.9 |
| 20260510160050 | 78 | 0 | 0.0 | 3.5 | 0.00 | 0.00 | 0.00 | 32 | 1017.0 |
| 20260510154552 | 78 | 0 | 0.0 | 1.7 | 0.00 | 0.00 | 0.00 | 36 | 1017.0 |
| 20260510153105 | 78 | 0 | 0.0 | 6.1 | 0.00 | 0.00 | 0.00 | 37 | 1017.0 |
| 20260510151556 | 77 | 0 | 0.0 | 0.9 | 0.00 | 0.00 | 0.00 | 40 | 1017.1 |
| 20260510150044 | 76 | 180 | 0.0 | 2.6 | 0.00 | 0.00 | 0.00 | 40 | 1017.1 |
| 20260510144550 | 76 | 0 | 0.0 | 1.7 | 0.00 | 0.00 | 0.00 | 43 | 1017.2 |
| 20260510143104 | 74 | 285 | 0.0 | 1.7 | 0.00 | 0.00 | 0.00 | 49 | 1017.1 |
| 20260510141553 | 73 | 0 | 0.0 | 1.7 | 0.00 | 0.00 | 0.00 | 51 | 1017.0 |
| 20260510140048 | 72 | 0 | 0.0 | 0.0 | 0.00 | 0.00 | 0.00 | 58 | 1017.1 |
| 20260510134555 | 71 | 0 | 0.0 | 1.7 | 0.00 | 0.00 | 0.00 | 62 | 1017.0 |
| 20260510133052 | 68 | 0 | 0.0 | 1.7 | 0.00 | 0.00 | 0.00 | 65 | 1016.9 |
| 20260510131554 | 67 | 0 | 0.0 | 0.9 | 0.00 | 0.00 | 0.00 | 73 | 1017.0 |
| 20260510130050 | 64 | 0 | 0.0 | 0.9 | 0.00 | 0.00 | 0.00 | 82 | 1017.0 |
| 20260510124554 | 62 | 0 | 0.0 | 0.9 | 0.00 | 0.00 | 0.00 | 87 | 1016.9 |
| 20260510123049 | 61 | 0 | 0.0 | 0.9 | 0.00 | 0.00 | 0.00 | 92 | 1016.6 |
| 20260510121546 | 60 | 0 | 0.0 | 0.9 | 0.00 | 0.00 | 0.00 | 94 | 1016.4 |
| 20260510120046 | 59 | 0 | 0.0 | 0.0 | 0.00 | 0.00 | 0.00 | 94 | 1016.0 |
| 20260510114557 | 57 | 0 | 0.0 | 0.0 | 0.00 | 0.00 | 0.00 | 94 | 1015.8 |
| 20260510113052 | 56 | 0 | 0.0 | 0.0 | 0.00 | 0.00 | 0.00 | 94 | 1015.6 |
| 20260510111551 | 55 | 0 | 0.0 | 0.0 | 0.00 | 0.00 | 0.00 | 93 | 1015.5 |
| 20260510110053 | 55 | 0 | 0.0 | 0.0 | 0.00 | 0.00 | 0.00 | 93 | 1015.3 |
| 20260510104545 | 55 | 0 | 0.0 | 0.0 | 0.00 | 0.00 | 0.00 | 93 | 1015.0 |
| 20260510103051 | 55 | 0 | 0.0 | 0.0 | 0.00 | 0.00 | 0.00 | 92 | 1014.8 |
| 20260510101552 | 56 | 0 | 0.0 | 0.0 | 0.00 | 0.00 | 0.00 | 92 | 1014.4 |
| 20260510100112 | 56 | 0 | 0.0 | 0.0 | 0.00 | 0.00 | 0.00 | 92 | 1014.2 |
| 20260510094555 | 56 | 0 | 0.0 | 0.0 | 0.00 | 0.00 | 0.00 | 92 | 1014.0 |
| 20260510093053 | 57 | 0 | 0.0 | 0.0 | 0.00 | 0.00 | 0.00 | 92 | 1014.0 |
| 20260510091548 | 57 | 0 | 0.0 | 0.0 | 0.00 | 0.00 | 0.00 | 92 | 1014.0 |
| 20260510090051 | 57 | 0 | 0.0 | 0.0 | 0.00 | 0.00 | 0.00 | 92 | 1013.9 |
| 20260510084546 | 57 | 0 | 0.0 | 0.0 | 0.00 | 0.00 | 0.00 | 92 | 1013.6 |
| 20260510083057 | 58 | 0 | 0.0 | 0.0 | 0.00 | 0.00 | 0.00 | 92 | 1013.6 |
| 20260510081550 | 58 | 0 | 0.0 | 0.0 | 0.00 | 0.00 | 0.00 | 92 | 1013.4 |
| 20260510080045 | 58 | 0 | 0.0 | 0.0 | 0.00 | 0.00 | 0.00 | 91 | 1013.2 |
| 20260510074553 | 58 | 0 | 0.0 | 0.0 | 0.00 | 0.00 | 0.00 | 91 | 1013.2 |
| 20260510073044 | 59 | 0 | 0.0 | 0.0 | 0.00 | 0.00 | 0.00 | 91 | 1013.1 |
| 20260510071556 | 59 | 0 | 0.0 | 0.0 | 0.00 | 0.00 | 0.00 | 91 | 1013.0 |
| 20260510070050 | 59 | 0 | 0.0 | 0.0 | 0.00 | 0.00 | 0.00 | 90 | 1012.8 |
| 20260510064551 | 59 | 0 | 0.0 | 0.0 | 0.00 | 0.00 | 0.00 | 90 | 1012.9 |
| 20260510063045 | 60 | 0 | 0.0 | 0.0 | 0.00 | 0.00 | 0.00 | 90 | 1012.9 |
| 20260510061554 | 60 | 0 | 0.0 | 0.0 | 0.00 | 0.00 | 0.00 | 89 | 1013.1 |
| 20260510060050 | 60 | 0 | 0.0 | 0.9 | 0.00 | 0.00 | 0.00 | 89 | 1013.1 |
| 20260510054550 | 61 | 0 | 0.0 | 0.0 | 0.00 | 0.00 | 0.00 | 88 | 1013.0 |
| 20260510053049 | 61 | 0 | 0.0 | 0.0 | 0.00 | 0.00 | 0.00 | 88 | 1013.2 |
| 20260510051551 | 61 | 0 | 0.0 | 0.0 | 0.00 | 0.00 | 0.00 | 87 | 1013.2 |
| 20260510050053 | 62 | 0 | 0.0 | 0.9 | 0.00 | 0.00 | 0.00 | 86 | 1013.3 |
| 20260510044550 | 62 | 0 | 0.0 | 0.9 | 0.00 | 0.00 | 0.00 | 86 | 1013.4 |
| 20260510043054 | 62 | 0 | 0.0 | 0.9 | 0.00 | 0.00 | 0.00 | 85 | 1013.3 |
| 20260510041550 | 62 | 0 | 0.0 | 0.9 | 0.00 | 0.00 | 0.00 | 84 | 1013.3 |
| 20260510040048 | 63 | 0 | 0.0 | 0.9 | 0.00 | 0.00 | 0.00 | 84 | 1013.3 |
| 20260510034543 | 63 | 0 | 0.0 | 0.9 | 0.00 | 0.00 | 0.00 | 83 | 1013.3 |
| 20260510033111 | 64 | 0 | 0.0 | 0.0 | 0.00 | 0.00 | 0.00 | 82 | 1013.5 |
| 20260510031551 | 64 | 0 | 0.0 | 0.9 | 0.00 | 0.00 | 0.00 | 83 | 1013.4 |
| 20260510030044 | 64 | 0 | 0.0 | 0.9 | 0.00 | 0.00 | 0.00 | 80 | 1013.3 |
| 20260510024546 | 65 | 0 | 0.0 | 0.9 | 0.00 | 0.00 | 0.00 | 80 | 1013.2 |
| 20260510023046 | 65 | 0 | 0.0 | 0.9 | 0.00 | 0.00 | 0.00 | 78 | 1013.2 |
| 20260510021545 | 65 | 224 | 0.0 | 1.7 | 0.00 | 0.00 | 0.00 | 77 | 1013.0 |
| 20260510020050 | 66 | 0 | 0.0 | 2.6 | 0.00 | 0.00 | 0.00 | 76 | 1013.0 |
| 20260510014544 | 66 | 203 | 0.0 | 1.7 | 0.00 | 0.00 | 0.00 | 75 | 1012.9 |
| 20260510013042 | 67 | 0 | 0.9 | 5.2 | 0.00 | 0.00 | 0.00 | 74 | 1012.5 |
| 20260510011552 | 67 | 188 | 0.0 | 3.5 | 0.00 | 0.00 | 0.00 | 73 | 1012.2 |
| 20260510010043 | 68 | 228 | 0.0 | 3.5 | 0.00 | 0.00 | 0.00 | 71 | 1011.9 |
| 20260510004550 | 68 | 0 | 0.0 | 3.5 | 0.00 | 0.00 | 0.00 | 70 | 1011.7 |
| 20260510003108 | 69 | 179 | 0.0 | 4.3 | 0.00 | 0.00 | 0.00 | 69 | 1011.5 |
| 20260510001543 | 69 | 222 | 0.0 | 2.6 | 0.00 | 0.00 | 0.00 | 68 | 1011.4 |
| 20260510000046 | 70 | 0 | 0.9 | 5.2 | 0.00 | 0.00 | 0.00 | 67 | 1011.3 |
| 20260509234557 | 70 | 150 | 0.0 | 5.2 | 0.00 | 0.00 | 0.00 | 66 | 1011.3 |
| 20260509233046 | 71 | 0 | 0.0 | 6.1 | 0.00 | 0.00 | 0.00 | 66 | 1011.1 |
| 20260509231553 | 71 | 0 | 0.9 | 5.2 | 0.00 | 0.00 | 0.00 | 65 | 1010.9 |
| 20260509230057 | 71 | 0 | 1.7 | 7.0 | 0.00 | 0.00 | 0.00 | 64 | 1010.9 |
| 20260509224548 | 72 | 225 | 0.9 | 6.1 | 0.00 | 0.00 | 0.00 | 64 | 1010.7 |
| 20260509223049 | 72 | 0 | 0.9 | 4.3 | 0.00 | 0.00 | 0.00 | 63 | 1010.5 |
| 20260509221548 | 72 | 0 | 0.0 | 7.0 | 0.00 | 0.00 | 0.00 | 61 | 1010.4 |
| 20260509220050 | 73 | 78 | 0.9 | 7.8 | 0.00 | 0.00 | 0.00 | 60 | 1010.5 |
| 20260509214540 | 73 | 240 | 0.9 | 10.4 | 0.00 | 0.00 | 0.00 | 60 | 1010.5 |
| 20260509213055 | 73 | 190 | 2.6 | 10.4 | 0.00 | 0.00 | 0.00 | 59 | 1010.4 |
| 20260509211543 | 73 | 186 | 2.6 | 8.7 | 0.00 | 0.00 | 0.00 | 58 | 1010.7 |
| 20260509210051 | 74 | 217 | 0.0 | 11.3 | 0.00 | 0.00 | 0.00 | 59 | 1010.3 |
| 20260509204542 | 74 | 240 | 0.9 | 7.0 | 0.00 | 0.00 | 0.00 | 58 | 1010.1 |